Zurück zum Katalog

TITAN 3C TRANSTAGE DEB

AktivHEO
NORAD 19518·DEBRIS·🇺🇸 United States

Gestartet Dec 21, 1965 von Cape Canaveral Space Force Station

Loading…

Nächste Überflüge (nächste 24 Stunden)

TLE

AktuellSource: Space-Track

Epoche: Sep 13, 2026, 04:57 UTC

1 19518U 65108Z   26256.20671948 -.00000862  00000-0 -64036-2 0  9991
2 19518  26.2711 227.6095 6628613 156.8001 351.5785  2.92156417347330

Verfolge TITAN 3C TRANSTAGE DEB in Echtzeit mit AllMySat

Download on the App Store